1487610000.06,64019,13.56,72978.3,-6.85,-37.51,-37.63,0,*50
1487610001.32,64020,13.56,72974.8,-6.85,-37.69,-37.63,0,*51
1487610002.57,64021,13.63,72978.3,-6.85,-37.63,-37.69,0,*50
1487610003.84,64022,13.56,72976.0,-6.85,-37.63,-37.81,0,*55
1487610005.1,64023,13.56,72972.5,-6.85,-37.69,-37.81,0,*5E
1487610006.36,64024,13.56,72976.3,-6.85,-37.69,-37.81,0,*59
1487610007.62,64025,13.56,72974.0,-6.85,-37.51,-37.51,0,*5E
1487610008.85,64026,13.56,72976.3,-6.87,-37.33,-37.45,0,*5E
1487610010.08,64027,13.63,72976.3,-6.87,-37.33,-37.45,0,*5F
1487610011.37,64028,13.56,72972.8,-6.87,-37.51,-37.51,0,*51
1487610012.63,64029,13.63,72972.8,-6.87,-37.45,-37.51,0,*55
1487610013.87,64030,13.56,72960.3,-6.87,-37.27,-37.33,0,*5D
1487610015.11,64031,13.56,72962.3,-6.87,-37.15,-37.15,0,*59
1487610016.37,64032,13.56,72958.8,-6.87,-37.09,-37.15,0,*57
1487610017.61,64033,13.56,72962.3,-6.91,-37.15,-37.33,0,*58
1487610018.84,64034,13.56,72964.3,-6.87,-37.27,-37.45,0,*58
1487610020.13,64035,13.56,72966.0,-6.91,-37.39,-37.51,0,*54
1487610021.37,64036,13.56,72960.5,-6.87,-37.27,-37.33,0,*5B
1487610022.6,64037,13.63,72968.0,-6.87,-37.27,-37.45,0,*5B
1487610023.89,64038,13.63,72972.3,-6.87,-37.51,-37.63,0,*51
1487610025.15,64039,13.63,72970.5,-6.91,-37.57,-37.69,0,*5B
1487610026.43,64040,13.63,72968.5,-6.91,-37.69,-37.69,0,*58
1487610027.67,64041,13.56,72964.8,-6.91,-37.57,-37.57,0,*59
1487610028.93,64042,13.56,72966.5,-6.91,-37.57,-37.69,0,*57
1487610030.19,64043,13.56,72972.3,-6.91,-37.69,-37.75,0,*56
1487610031.45,64044,13.63,72976.3,-6.91,-37.75,-37.93,0,*54
1487610032.74,64045,13.56,72972.5,-6.91,-37.69,-37.93,0,*58
1487610034.03,64046,13.63,72974.5,-6.93,-37.93,-37.99,0,*56
1487610035.32,64047,13.63,72974.8,-6.93,-37.63,-37.81,0,*51
1487610036.55,64048,13.63,72976.5,-6.95,-37.75,-37.93,0,*5C
1487610037.8,64049,13.56,72972.0,-6.93,-37.75,-37.93,0,*5B
1487610039.01,64050,13.63,72974.3,-6.95,-37.57,-37.57,0,*5D
1487610040.25,64051,13.56,72974.3,-6.95,-37.45,-37.63,0,*58
1487610041.48,64052,13.63,72978.8,-6.95,-37.63,-37.75,0,*58
1487610042.76,64053,13.56,72972.5,-6.93,-37.63,-37.93,0,*57
1487610044.0,64054,13.56,72972.3,-6.95,-37.57,-37.63,0,*5E
1487610045.21,64055,13.56,72974.8,-6.95,-37.57,-37.57,0,*58
1487610046.44,64056,13.63,72976.5,-6.95,-37.57,-37.63,0,*5C
1487610047.73,64057,13.56,72968.8,-6.93,-37.63,-37.63,0,*5C
1487610048.97,64058,13.56,72972.3,-6.95,-37.57,-37.63,0,*52
1487610050.2,64059,13.56,72972.8,-6.95,-37.39,-37.45,0,*5F
1487610051.41,64060,13.56,72972.0,-6.95,-37.45,-37.57,0,*5D
1487610052.61,64061,13.63,72978.8,-6.95,-37.57,-37.57,0,*5F
1487610053.85,64062,13.56,72972.5,-6.95,-37.57,-37.63,0,*5B
1487610055.09,64063,13.63,72976.5,-6.95,-37.45,-37.63,0,*59
1487610056.29,64064,13.56,72968.8,-6.99,-37.33,-37.45,0,*57
1487610057.49,64065,13.63,72972.8,-6.99,-37.27,-37.45,0,*53
1487610058.69,64066,13.63,72978.0,-6.95,-37.45,-37.57,0,*5B
1487610059.96,64067,13.56,72978.5,-6.95,-37.63,-37.63,0,*59
1487610061.22,64068,13.56,72974.0,-6.95,-37.81,-37.93,0,*55
1487610062.44,64069,13.63,72978.5,-6.99,-37.87,-37.87,0,*5B
1487610063.68,64070,13.63,72980.0,-6.99,-37.87,-37.99,0,*5C
1487610064.97,64071,13.56,72980.0,-7.01,-37.81,-37.99,0,*5B
1487610066.19,64072,13.56,72978.5,-6.99,-37.87,-37.87,0,*51
1487610067.47,64073,13.63,72982.8,-7.01,-37.69,-37.81,0,*56
1487610068.75,64074,13.56,72980.5,-7.01,-37.63,-37.69,0,*5D
1487610070.03,64075,13.56,72980.8,-7.01,-37.51,-37.69,0,*5D
1487610071.32,64076,13.56,72978.3,-7.01,-37.81,-37.81,0,*55
1487610072.61,64077,13.56,72976.0,-7.01,-37.81,-37.81,0,*54
1487610073.87,64078,13.63,72976.8,-7.01,-37.33,-37.63,0,*5E
1487610075.16,64079,13.56,72978.3,-7.01,-37.51,-37.63,0,*5B
1487610076.42,64080,13.56,72972.0,-7.01,-37.21,-37.33,0,*5F
1487610077.68,64081,13.56,72970.3,-7.01,-37.09,-37.27,0,*51
1487610078.94,64082,13.56,72974.3,-7.01,-37.21,-37.27,0,*58
1487610080.22,64083,13.63,72976.5,-7.01,-37.09,-37.21,0,*55
1487610081.45,64084,13.63,72978.0,-6.99,-37.09,-37.27,0,*54
1487610082.68,64085,13.56,72978.8,-7.01,-37.27,-37.45,0,*5D
1487610083.94,64086,13.56,72978.8,-7.01,-37.45,-37.63,0,*5E
1487610085.2,64087,13.63,72980.5,-7.01,-37.45,-37.51,0,*5E
1487610086.4,64088,13.56,72970.0,-6.99,-37.27,-37.33,0,*51
1487610087.6,64089,13.63,72982.0,-6.99,-37.27,-37.33,0,*50
1487610088.81,64090,13.56,72978.8,-6.99,-37.33,-37.45,0,*5C
1487610090.09,64091,13.56,72972.0,-7.01,-37.69,-37.63,0,*56
1487610091.33,64092,13.56,72974.0,-6.99,-37.33,-37.51,0,*5B
1487610092.61,64093,13.63,72978.3,-7.01,-37.51,-37.63,0,*5F
1487610093.89,64094,13.56,72968.0,-7.01,-37.63,-37.69,0,*53
1487610095.17,64095,13.63,72976.0,-7.01,-37.69,-37.69,0,*58
1487610096.43,64096,13.56,72976.5,-6.99,-37.51,-37.63,0,*5A
1487610097.69,64097,13.63,72984.5,-7.01,-37.45,-37.51,0,*5F
1487610098.95,64098,13.56,72974.0,-7.01,-37.33,-37.51,0,*51
1487610100.18,64099,13.56,72980.8,-6.99,-37.45,-37.51,0,*51
1487610101.47,64100,13.56,72976.8,-7.01,-37.51,-37.51,0,*55
1487610102.72,64101,13.63,72984.0,-7.01,-37.45,-37.51,0,*51
1487610103.96,64102,13.56,72980.5,-6.99,-37.45,-37.63,0,*53
1487610105.25,64103,13.56,72982.3,-7.01,-37.51,-37.63,0,*57
1487610106.52,64104,13.63,72984.0,-7.01,-37.63,-37.69,0,*5B
1487610107.8,64105,13.56,72978.5,-7.01,-37.63,-37.69,0,*5A
1487610109.03,64106,13.63,72984.5,-7.01,-37.45,-37.45,0,*53
1487610110.26,64107,13.63,72978.5,-7.03,-37.27,-37.39,0,*5F
1487610111.5,64108,13.56,72980.3,-7.01,-36.85,-36.73,0,*54
1487610112.76,64109,13.63,72980.5,-7.01,-37.03,-37.09,0,*56
1487610114.02,64110,13.56,72978.5,-6.99,-37.09,-37.21,0,*5E
1487610115.27,64111,13.63,72970.0,-7.01,-36.91,-36.85,0,*50
1487610116.51,64112,13.56,72968.8,-6.99,-36.49,-36.67,0,*5A
1487610117.72,64113,13.56,72968.8,-6.99,-36.85,-36.73,0,*5E
1487610118.95,64114,13.56,72970.3,-7.01,-37.03,-37.27,0,*56
1487610120.15,64115,13.56,72972.3,-6.99,-37.27,-37.33,0,*54
1487610121.39,64116,13.56,72964.8,-6.99,-37.45,-37.63,0,*56
1487610122.65,64117,13.56,72968.8,-6.99,-37.51,-37.63,0,*52
1487610123.89,64118,13.56,72970.3,-6.99,-37.45,-37.51,0,*59
1487610125.14,64119,13.56,72974.5,-6.99,-37.51,-37.69,0,*56
1487610126.42,64120,13.56,72970.3,-7.01,-37.69,-37.81,0,*51
1487610127.7,64121,13.56,72968.8,-7.01,-37.69,-37.69,0,*56
1487610128.95,64122,13.56,72966.0,-7.01,-37.45,-37.69,0,*5B
1487610130.23,64123,13.56,72966.3,-7.01,-37.51,-37.69,0,*5F
1487610131.51,64124,13.56,72974.5,-7.01,-37.63,-37.81,0,*5F
1487610132.8,64125,13.56,72968.8,-7.01,-37.63,-37.63,0,*52
1487610134.08,64126,13.56,72974.8,-7.01,-37.63,-37.69,0,*5B
1487610135.36,64127,13.56,72976.0,-7.01,-37.69,-37.69,0,*50
1487610136.63,64128,13.56,72976.0,-7.01,-37.69,-37.69,0,*5F
1487610137.9,64129,13.56,72970.8,-7.01,-37.81,-37.87,0,*58
1487610139.13,64130,13.56,72970.8,-7.03,-37.93,-38.05,0,*54
1487610140.34,64131,13.56,72974.5,-7.03,-37.87,-38.05,0,*50
1487610141.61,64132,13.56,72970.8,-7.01,-37.81,-37.87,0,*52
1487610142.84,64133,13.56,72972.8,-7.03,-37.75,-37.93,0,*5F
1487610144.08,64134,13.63,72978.0,-7.03,-37.87,-37.93,0,*55
1487610145.32,64135,13.63,72978.3,-7.01,-37.87,-37.87,0,*53
1487610146.54,64136,13.56,72978.5,-7.05,-38.05,-38.05,0,*54
1487610147.78,64137,13.56,72980.5,-7.03,-37.87,-37.93,0,*56
1487610149.05,64138,13.56,72980.3,-7.01,-37.81,-37.87,0,*58
1487610150.3,64139,13.56,72982.5,-7.05,-37.93,-38.05,0,*5B
1487610151.53,64140,13.56,72982.8,-7.05,-38.05,-38.05,0,*55
1487610152.75,64141,13.56,72982.0,-7.05,-38.05,-38.05,0,*54
1487610153.98,64142,13.56,72980.5,-7.05,-38.05,-38.05,0,*57
1487610155.26,64143,13.56,72982.8,-7.05,-38.11,-38.23,0,*57
1487610156.54,64144,13.56,72978.0,-7.05,-38.11,-38.23,0,*50
1487610157.83,64145,13.56,72978.3,-7.05,-38.11,-38.23,0,*51
1487610159.1,64146,13.63,72980.3,-7.05,-38.11,-38.11,0,*53
1487610160.33,64147,13.56,72980.0,-7.07,-38.11,-38.17,0,*56
1487610161.59,64148,13.56,72978.0,-7.07,-37.93,-37.99,0,*55
1487610162.84,64149,13.56,72972.5,-7.05,-37.93,-38.05,0,*5C
1487610164.1,64150,13.56,72978.0,-7.07,-37.93,-37.81,0,*55
1487610165.39,64151,13.63,72980.0,-7.09,-37.99,-37.93,0,*53
1487610166.65,64152,13.56,72980.5,-7.07,-37.93,-37.81,0,*57
1487610167.94,64153,13.56,72982.8,-7.09,-37.81,-37.93,0,*58
1487610169.22,64154,13.56,72980.3,-7.09,-37.63,-37.81,0,*50
1487610170.51,64155,13.56,72976.0,-7.09,-37.63,-37.81,0,*51
1487610171.73,64156,13.56,72976.0,-7.09,-37.45,-37.57,0,*5D
1487610172.99,64157,13.56,72972.3,-7.11,-37.69,-37.81,0,*50
1487610174.25,64158,13.56,72974.5,-7.09,-37.75,-37.81,0,*5B
1487610175.49,64159,13.56,72974.0,-7.07,-37.75,-37.81,0,*54
1487610176.77,64160,13.56,72980.5,-7.09,-37.63,-37.63,0,*5B
1487610178.02,64161,13.56,72972.5,-7.09,-37.39,-37.45,0,*51
1487610179.29,64162,13.56,72974.0,-7.09,-37.21,-37.15,0,*5E
1487610180.5,64163,13.56,72968.5,-7.07,-37.03,-37.03,0,*56
1487610181.73,64164,13.56,72968.3,-7.09,-36.67,-36.67,0,*5F
1487610182.97,64165,13.56,72966.8,-7.09,-36.43,-36.43,0,*5E
1487610184.22,64166,13.56,72966.8,-7.09,-36.13,-36.31,0,*5D
1487610185.46,64167,13.56,72966.5,-7.05,-36.07,-36.01,0,*56
1487610186.73,64168,13.56,72968.0,-7.03,-36.25,-36.25,0,*59
1487610187.98,64169,13.56,72962.8,-7.03,-36.61,-36.61,0,*58
1487610189.25,64170,13.56,72964.8,-7.01,-36.49,-36.55,0,*5F
1487610190.5,64171,13.56,72970.0,-7.01,-37.03,-37.09,0,*59
1487610191.76,64172,13.56,72968.8,-7.01,-37.21,-37.33,0,*53
1487610192.99,64173,13.56,72964.8,-7.01,-37.33,-37.33,0,*51
1487610194.25,64174,13.56,72970.5,-7.01,-37.09,-37.27,0,*5A
1487610195.53,64175,13.56,72974.5,-7.01,-37.51,-37.63,0,*56
1487610196.79,64176,13.56,72968.0,-7.01,-36.91,-37.03,0,*5E
1487610198.05,64177,13.56,72956.8,-6.99,-36.91,-36.91,0,*55
1487610199.31,64178,13.56,72962.0,-7.01,-37.21,-37.27,0,*5C
1487610200.57,64179,13.56,72962.0,-7.01,-37.21,-37.33,0,*58
1487610201.85,64180,13.56,72956.3,-7.01,-37.09,-37.21,0,*57
1487610203.09,64181,13.56,72962.0,-7.01,-37.03,-37.03,0,*5C
1487610204.29,64182,13.56,72966.8,-6.99,-37.33,-37.33,0,*5F
1487610205.52,64183,13.56,72972.3,-7.01,-37.27,-37.33,0,*5B
1487610206.74,64184,13.56,72972.3,-7.01,-37.33,-37.45,0,*58
1487610207.97,64185,13.56,72970.8,-7.01,-37.27,-37.27,0,*58
1487610209.23,64186,13.56,72966.5,-7.01,-37.09,-37.03,0,*51
1487610210.49,64187,13.56,72970.8,-6.99,-37.09,-37.09,0,*5A
1487610211.75,64188,13.56,72970.3,-6.99,-37.09,-37.09,0,*55
1487610213.01,64189,13.56,72964.5,-7.01,-37.27,-37.21,0,*52
1487610214.23,64190,13.56,72976.0,-7.01,-37.33,-37.45,0,*5D
1487610215.52,64191,13.56,72982.0,-7.01,-37.21,-37.21,0,*5D
1487610216.75,64192,13.56,72964.3,-6.99,-37.27,-37.21,0,*58
1487610218.01,64193,13.56,72970.0,-7.01,-37.33,-37.63,0,*5A
1487610219.3,64194,13.56,72972.0,-7.01,-37.09,-37.21,0,*52
1487610220.59,64195,13.56,72972.3,-7.01,-37.21,-37.21,0,*59
1487610221.87,64196,13.56,72972.8,-7.01,-37.09,-37.21,0,*50
1487610223.11,64197,13.56,72972.5,-6.99,-37.03,-36.91,0,*51
1487610224.36,64198,13.56,72974.0,-7.01,-37.09,-37.03,0,*5E
1487610225.6,64199,13.56,72972.3,-6.99,-37.09,-37.03,0,*5F
1487610226.83,64200,13.56,72964.8,-6.99,-36.85,-36.91,0,*53
1487610228.04,64201,13.56,72974.8,-6.99,-37.03,-37.03,0,*57
1487610229.27,64202,13.56,72976.8,-6.99,-37.21,-37.27,0,*52
1487610230.51,64203,13.56,72978.8,-6.99,-37.09,-37.03,0,*5F
1487610231.77,64204,13.56,72976.3,-6.99,-37.09,-37.21,0,*58
1487610233.0,64205,13.56,72974.8,-6.99,-37.09,-36.85,0,*56
1487610234.21,64206,13.56,72980.5,-6.99,-36.67,-36.55,0,*51
1487610235.47,64207,13.56,72978.8,-6.99,-37.09,-37.09,0,*51
1487610236.68,64208,13.56,72982.5,-6.95,-37.03,-36.97,0,*5E
1487610237.91,64209,13.56,72980.3,-6.95,-36.79,-36.97,0,*53
1487610239.12,64210,13.56,72976.5,-6.95,-36.67,-36.67,0,*5B
1487610240.33,64211,13.56,72980.5,-6.95,-36.97,-37.03,0,*56
1487610241.6,64212,13.56,72980.0,-6.95,-37.21,-37.21,0,*59
1487610242.81,64213,13.56,72978.0,-6.95,-37.45,-37.57,0,*5B
1487610244.07,64214,13.56,72978.8,-6.95,-37.21,-37.21,0,*5F
1487610245.33,64215,13.56,72976.0,-6.95,-37.39,-37.39,0,*5E
1487610246.56,64216,13.56,72972.0,-6.95,-37.39,-37.45,0,*56
1487610247.76,64217,13.56,72978.5,-6.95,-37.45,-37.45,0,*5C
1487610249.02,64218,13.56,72982.0,-6.95,-37.39,-37.39,0,*53
1487610250.28,64219,13.56,72980.8,-6.95,-37.39,-37.39,0,*52
1487610251.48,64220,13.56,72984.0,-6.95,-37.57,-37.45,0,*5B
1487610252.72,64221,13.56,72986.8,-6.95,-37.39,-37.57,0,*51
1487610253.92,64222,13.56,72984.5,-6.95,-37.45,-37.57,0,*59
1487610255.18,64223,13.56,72980.0,-6.99,-37.69,-37.69,0,*57
1487610256.43,64224,13.56,72980.5,-6.99,-37.63,-37.69,0,*5A
1487610257.7,64225,13.56,72980.0,-6.99,-37.81,-37.81,0,*51
1487610258.96,64226,13.56,72980.0,-7.01,-37.87,-37.81,0,*54
1487610260.25,64227,13.56,72976.0,-7.01,-37.69,-37.81,0,*55
1487610261.52,64228,13.56,72978.0,-7.01,-37.69,-37.69,0,*5C
1487610262.78,64229,13.56,72972.8,-7.01,-37.87,-37.69,0,*5D
1487610264.05,64230,13.56,72978.5,-7.01,-37.87,-37.81,0,*53
1487610265.29,64231,13.56,72974.5,-7.01,-37.87,-37.87,0,*54
1487610266.52,64232,13.56,72974.5,-7.03,-37.93,-37.87,0,*50
1487610267.78,64233,13.56,72974.3,-7.03,-37.93,-37.93,0,*54
1487610269.0,64234,13.56,72976.0,-7.03,-37.87,-37.75,0,*5E
1487610270.23,64235,13.56,72974.8,-7.03,-37.69,-37.75,0,*5F
1487610271.44,64236,13.56,72976.3,-7.03,-37.57,-37.57,0,*51
1487610272.64,64237,13.56,72976.0,-7.03,-37.57,-37.57,0,*50
1487610273.9,64238,13.56,72976.5,-7.05,-37.27,-37.39,0,*56
1487610275.19,64239,13.56,72978.3,-7.05,-37.39,-37.51,0,*56
1487610276.47,64240,13.56,72976.3,-7.05,-37.39,-37.51,0,*58
1487610277.75,64241,13.56,72974.8,-7.05,-37.39,-37.39,0,*57
1487610278.96,64242,13.56,72976.5,-7.03,-37.33,-37.33,0,*52
1487610280.19,64243,13.56,72972.8,-7.03,-37.33,-37.51,0,*57
1487610281.43,64244,13.56,72974.0,-7.03,-37.51,-37.57,0,*52
1487610282.7,64245,13.56,72978.3,-7.05,-37.51,-37.69,0,*58
1487610283.93,64246,13.56,72980.3,-7.03,-37.75,-37.93,0,*5E
1487610285.19,64247,13.56,72986.3,-7.05,-37.93,-38.05,0,*51
1487610286.41,64248,13.56,72984.0,-7.05,-38.05,-38.05,0,*5E
1487610287.65,64249,13.56,72986.0,-7.05,-37.87,-37.87,0,*5F
1487610288.89,64250,13.56,72986.0,-7.05,-37.87,-37.75,0,*5A
1487610290.15,64251,13.56,72982.8,-7.05,-37.69,-37.75,0,*5B
1487610291.38,64252,13.56,72986.3,-7.05,-37.75,-37.75,0,*55
1487610292.61,64253,13.56,72988.8,-7.05,-37.57,-37.57,0,*54
1487610293.88,64254,13.56,72984.5,-7.05,-37.69,-37.69,0,*53
1487610295.14,64255,13.56,72984.0,-7.05,-37.51,-37.57,0,*54
1487610296.39,64256,13.56,72984.5,-7.05,-37.57,-37.69,0,*5C
1487610297.65,64257,13.56,72990.0,-7.05,-37.87,-37.69,0,*50
1487610298.89,64258,13.56,72990.8,-7.05,-37.87,-37.87,0,*5F
1487610300.13,64259,13.56,72990.0,-7.05,-37.87,-37.87,0,*5E
1487610301.35,64260,13.56,72984.0,-7.05,-37.33,-37.33,0,*54
1487610302.64,64261,13.56,72986.8,-7.05,-37.39,-37.51,0,*5B
1487610303.92,64262,13.56,72984.5,-7.05,-37.69,-37.69,0,*56
1487610305.15,64263,13.56,72988.3,-7.05,-37.75,-37.75,0,*57
1487610306.38,64264,13.56,72988.8,-7.05,-38.05,-37.87,0,*55
1487610307.64,64265,13.56,72988.0,-7.05,-37.87,-37.93,0,*54
1487610308.9,64266,13.56,72984.5,-7.03,-37.93,-37.93,0,*54
1487610310.15,64267,13.56,72978.8,-7.07,-37.99,-38.11,0,*5E
1487610311.44,64268,13.56,72970.3,-7.09,-37.39,-37.39,0,*50
1487610312.65,64269,13.56,72964.8,-7.07,-37.33,-37.15,0,*5B
1487610313.88,64270,13.56,72974.5,-7.07,-37.39,-37.57,0,*5F
1487610315.09,64271,13.56,72978.5,-7.07,-37.75,-37.75,0,*56
1487610316.32,64272,13.56,72980.8,-7.07,-37.45,-37.63,0,*51
1487610317.56,64273,13.56,72976.5,-7.07,-37.21,-37.33,0,*57
1487610318.77,64274,13.56,72980.3,-7.07,-37.15,-37.03,0,*54
1487610319.97,64275,13.56,72978.8,-7.07,-37.33,-37.33,0,*52
1487610321.21,64276,13.56,72980.5,-7.07,-37.21,-37.15,0,*56
1487610322.45,64277,13.56,72984.3,-7.05,-36.97,-36.97,0,*52
1487610323.66,64278,13.56,72978.8,-7.03,-36.73,-36.73,0,*5B
1487610324.93,64279,13.56,72974.8,-7.05,-36.79,-36.79,0,*5C
1487610326.19,64280,13.56,72972.0,-7.05,-36.61,-36.73,0,*59
1487610327.45,64281,13.56,72976.0,-7.05,-37.09,-36.97,0,*5D
1487610328.71,64282,13.56,72972.0,-7.03,-36.91,-36.91,0,*5E
1487610329.92,64283,13.56,72972.5,-7.03,-36.97,-36.97,0,*5F
1487610331.15,64284,13.56,72974.5,-7.03,-37.09,-37.15,0,*55
1487610332.42,64285,13.56,72974.0,-7.03,-37.39,-37.39,0,*59
1487610333.67,64286,13.56,72974.0,-7.01,-37.45,-37.51,0,*5D
1487610334.91,64287,13.56,72972.5,-7.03,-37.51,-37.57,0,*5D
1487610336.13,64288,13.56,72976.3,-7.03,-37.57,-37.69,0,*59
1487610337.38,64289,13.56,72982.0,-7.05,-37.57,-37.69,0,*5E
1487610338.59,64290,13.56,72976.5,-7.03,-37.75,-37.75,0,*5D
1487610339.8,64291,13.56,72976.3,-7.03,-37.75,-37.75,0,*5C
1487610341.06,64292,13.56,72976.3,-7.05,-37.69,-37.75,0,*54
1487610342.27,64293,13.56,72982.5,-7.03,-37.75,-37.87,0,*53
1487610343.53,64294,13.56,72980.8,-7.05,-37.69,-37.75,0,*52
1487610344.78,64295,13.56,72982.0,-7.05,-37.69,-37.75,0,*53
1487610345.99,64296,13.56,72978.0,-7.03,-37.15,-37.27,0,*5A
1487610347.25,64297,13.56,72980.5,-7.05,-37.27,-37.39,0,*53
1487610348.48,64298,13.56,72982.8,-7.05,-37.57,-37.57,0,*53
1487610349.7,64299,13.56,72976.3,-7.03,-37.57,-37.69,0,*59
1487610350.96,64300,13.56,72988.0,-7.03,-37.69,-37.69,0,*55
1487610352.19,64301,13.56,72986.8,-7.05,-37.15,-37.27,0,*53
1487610353.41,64302,13.56,72986.8,-7.05,-37.33,-37.33,0,*51
1487610354.63,64303,13.56,72992.5,-7.03,-37.27,-37.15,0,*57
1487610355.9,64304,13.56,72980.5,-7.05,-36.91,-36.79,0,*51
1487610357.16,64305,13.56,72982.5,-7.05,-37.09,-36.97,0,*50
1487610358.42,64306,13.56,72978.5,-7.03,-37.09,-37.09,0,*53
1487610359.63,64307,13.56,72978.5,-7.03,-36.97,-36.97,0,*52
1487610360.89,64308,13.56,72978.0,-7.03,-36.91,-36.91,0,*5D
1487610362.1,64309,13.56,72974.8,-7.03,-36.97,-36.97,0,*5C
1487610363.33,64310,13.56,72978.5,-7.03,-37.09,-36.97,0,*52
1487610364.54,64311,13.56,72976.8,-7.03,-37.33,-37.27,0,*50
1487610365.77,64312,13.56,72972.8,-7.03,-37.57,-37.69,0,*5B
1487610366.97,64313,13.56,72974.3,-6.99,-37.33,-37.33,0,*55
1487610368.26,64314,13.56,72968.8,-7.01,-37.21,-37.21,0,*52
1487610369.51,64315,13.56,72970.5,-7.01,-36.91,-36.85,0,*56
1487610370.79,64316,13.56,72968.3,-7.01,-36.91,-36.91,0,*50
1487610372.02,64317,13.56,72966.5,-7.01,-37.33,-37.33,0,*51
1487610373.24,64318,13.56,72970.5,-7.01,-37.33,-37.45,0,*5F
1487610374.5,64319,13.56,72976.3,-7.01,-37.33,-37.21,0,*5C
1487610375.73,64320,13.56,72974.5,-7.01,-37.33,-37.33,0,*55
1487610376.98,64321,13.56,72978.5,-7.01,-37.51,-37.45,0,*51
1487610378.21,64322,13.56,72980.3,-7.01,-37.27,-37.45,0,*53
1487610379.44,64323,13.56,72980.3,-6.99,-37.33,-37.63,0,*53
1487610380.73,64324,13.56,72974.5,-7.01,-37.63,-37.63,0,*51
1487610382.02,64325,13.56,72970.3,-7.01,-37.51,-37.63,0,*51
1487610383.3,64326,13.56,72976.0,-7.01,-37.69,-37.63,0,*59
1487610384.59,64327,13.56,72974.0,-7.01,-37.63,-37.63,0,*52
1487610385.81,64328,13.56,72974.0,-7.03,-37.87,-37.87,0,*5F
1487610387.05,64329,13.56,72978.0,-7.05,-37.87,-37.87,0,*58
1487610388.26,64330,13.56,72972.3,-7.03,-37.57,-37.75,0,*56
1487610389.49,64331,13.56,72976.0,-7.05,-37.75,-37.75,0,*51
1487610390.72,64332,13.56,72978.8,-7.05,-37.75,-37.75,0,*52
1487610391.95,64333,13.56,72980.5,-7.03,-37.69,-37.75,0,*58
1487610393.16,64334,13.56,72978.0,-7.03,-37.75,-37.75,0,*52
1487610394.4,64335,13.56,72978.8,-7.03,-37.93,-37.87,0,*56
1487610395.64,64336,13.56,72982.5,-7.05,-37.87,-37.87,0,*56
1487610396.87,64337,13.56,72976.0,-7.05,-37.75,-37.75,0,*57
1487610398.13,64338,13.56,72980.0,-7.05,-37.69,-37.75,0,*55
1487610399.36,64339,13.56,72982.5,-7.05,-37.75,-37.75,0,*59
1487610400.61,64340,13.56,72978.8,-7.05,-37.69,-37.75,0,*5A
1487610401.85,64341,13.56,72986.8,-7.05,-37.75,-37.87,0,*5B
1487610403.08,64342,13.56,72986.0,-7.05,-37.75,-37.87,0,*58
1487610404.29,64343,13.56,72986.3,-7.03,-37.75,-37.75,0,*52
1487610405.52,64344,13.56,72984.3,-7.07,-37.57,-37.63,0,*56
1487610406.76,64345,13.56,72980.8,-7.07,-37.63,-37.75,0,*57
1487610408.02,64346,13.56,72982.5,-7.09,-37.63,-37.75,0,*5A
1487610409.22,64347,13.56,72980.5,-7.07,-37.75,-37.75,0,*52
1487610410.48,64348,13.56,72982.0,-7.07,-37.99,-37.93,0,*57
1487610411.74,64349,13.56,72976.8,-7.07,-37.93,-37.93,0,*5C
1487610413.01,64350,13.56,72974.8,-7.07,-37.81,-37.81,0,*54
1487610414.29,64351,13.56,72978.8,-7.09,-37.93,-37.99,0,*51
1487610415.58,64352,13.56,72976.8,-7.09,-37.93,-37.81,0,*5B
1487610416.84,64353,13.56,72982.5,-7.07,-37.93,-37.81,0,*54
1487610418.1,64354,13.56,72984.3,-7.07,-37.93,-37.81,0,*53
1487610419.38,64355,13.56,72982.0,-7.09,-37.99,-37.93,0,*55
1487610420.64,64356,13.56,72984.5,-7.07,-37.99,-37.99,0,*52
1487610421.93,64357,13.56,72980.0,-7.09,-37.93,-37.99,0,*57
1487610423.17,64358,13.56,72984.3,-7.11,-37.87,-37.99,0,*54
1487610424.41,64359,13.56,72980.5,-7.11,-37.81,-37.87,0,*5C
1487610425.67,64360,13.56,72982.3,-7.11,-37.81,-37.81,0,*50
1487610426.93,64361,13.56,72988.5,-7.11,-37.69,-37.81,0,*57
1487610428.22,64362,13.56,72980.0,-7.13,-37.81,-37.81,0,*50
1487610429.49,64363,13.56,72990.8,-7.09,-37.81,-37.75,0,*51
1487610430.7,64364,13.56,72984.3,-7.11,-37.87,-37.87,0,*54
1487610431.96,64365,13.56,72982.3,-7.11,-37.99,-37.99,0,*55
1487610433.17,64366,13.56,72984.5,-7.11,-38.05,-37.87,0,*53
1487610434.43,64367,13.56,72984.0,-7.11,-37.99,-37.99,0,*57
1487610435.67,64368,13.56,72982.3,-7.13,-37.87,-37.87,0,*5A
1487610436.9,64369,13.56,72984.0,-7.11,-37.99,-37.87,0,*56
1487610438.16,64370,13.56,72982.5,-7.13,-38.05,-37.99,0,*59
1487610439.42,64371,13.56,72982.3,-7.13,-38.05,-37.99,0,*58
1487610440.64,64372,13.56,72980.8,-7.13,-38.05,-38.05,0,*51
1487610441.9,64373,13.56,72982.0,-7.13,-38.05,-37.99,0,*5A
1487610443.15,64374,13.56,72980.3,-7.13,-38.05,-37.99,0,*5D
1487610444.38,64375,13.56,72978.8,-7.13,-38.05,-38.05,0,*56
1487610445.6,64376,13.56,72980.5,-7.15,-38.11,-38.05,0,*56
1487610446.83,64377,13.56,72978.8,-7.15,-38.11,-38.05,0,*57
1487610448.06,64378,13.56,72976.0,-7.15,-38.05,-38.11,0,*58
1487610449.31,64379,13.56,72972.3,-7.15,-37.93,-37.93,0,*5C
1487610450.57,64380,13.56,72972.3,-7.15,-37.93,-37.93,0,*5A
1487610451.81,64381,13.56,72974.5,-7.15,-37.87,-37.93,0,*5E
1487610453.06,64382,13.56,72970.5,-7.15,-37.93,-37.93,0,*58
1487610454.32,64383,13.56,72978.5,-7.15,-37.93,-37.93,0,*59
1487610455.58,64384,13.56,72978.0,-7.17,-37.87,-37.93,0,*59
1487610456.84,64385,13.56,72976.3,-7.17,-37.93,-38.05,0,*5D
1487610458.1,64386,13.56,72978.0,-7.17,-37.87,-37.93,0,*5B
1487610459.34,64387,13.56,72980.3,-7.17,-37.87,-37.75,0,*52
1487610460.63,64388,13.56,72964.5,-7.17,-37.69,-37.69,0,*50
1487610461.86,64389,13.56,72968.5,-7.17,-37.75,-37.87,0,*5C
1487610463.15,64390,13.56,72964.8,-7.17,-37.93,-37.93,0,*59
1487610464.38,64391,13.56,72966.5,-7.17,-37.75,-37.75,0,*58
1487610465.67,64392,13.56,72968.5,-7.17,-37.51,-37.51,0,*5B
1487610466.9,64393,13.56,72962.3,-7.17,-37.57,-37.57,0,*5A
1487610468.11,64394,13.56,72964.8,-7.15,-37.75,-37.75,0,*5F
1487610469.32,64395,13.56,72968.0,-7.15,-37.75,-37.87,0,*53
1487610470.57,64396,13.56,72972.0,-7.17,-37.87,-37.87,0,*5F
1487610471.79,64397,13.56,72976.0,-7.17,-38.05,-38.05,0,*5E
1487610473.02,64398,13.56,72980.3,-7.21,-38.17,-38.17,0,*54
1487610474.28,64399,13.56,72976.0,-7.17,-38.11,-38.05,0,*55
1487610475.51,64400,13.56,72982.5,-7.21,-38.17,-38.17,0,*52
1487610476.74,64401,13.56,72980.8,-7.21,-38.17,-38.17,0,*53
1487610477.99,64402,13.56,72982.8,-7.17,-38.11,-38.05,0,*50
1487610479.28,64403,13.56,72978.0,-7.21,-37.93,-37.99,0,*5B
1487610480.51,64404,13.56,72976.3,-7.23,-37.75,-37.93,0,*5C
1487610481.77,64405,13.56,72982.0,-7.23,-37.99,-37.93,0,*5F
1487610483.05,64406,13.56,72980.8,-7.21,-37.63,-37.63,0,*54
1487610484.34,64407,13.56,72982.3,-7.21,-37.51,-37.51,0,*55
1487610485.63,64408,13.56,72976.5,-7.21,-37.81,-37.81,0,*5A
1487610486.86,64409,13.56,72978.5,-7.23,-37.63,-37.75,0,*5E
1487610488.13,64410,13.56,72980.0,-7.23,-37.93,-37.99,0,*5B
1487610489.38,64411,13.56,72976.5,-7.23,-38.11,-38.11,0,*50
1487610490.61,64412,13.56,72980.0,-7.23,-38.17,-38.11,0,*55
1487610491.84,64413,13.56,72980.8,-7.23,-38.17,-38.11,0,*54
1487610493.07,64414,13.56,72980.0,-7.23,-38.17,-38.11,0,*53
1487610494.31,64415,13.56,72982.5,-7.23,-38.17,-38.29,0,*59
1487610495.51,64416,13.56,72980.3,-7.23,-38.17,-38.17,0,*57
1487610496.77,64417,13.56,72980.0,-7.23,-38.11,-37.99,0,*59
1487610497.98,64418,13.56,72980.5,-7.25,-38.17,-38.17,0,*5F